AV395 Weather Reports


time (UTC)temp
C
wind
direction
speed
KPH
gust
KPH
rain 1hr
cm
rain 24hr
cm
rain mn
cm
humidity
%
barometer
mb
20260505165052 23 0.0 0.0 0.00 0.00 0.00 53 1013.6
20260505164057 22 0.0 0.0 0.00 0.00 0.00 54 1013.6
20260505163019 22 0.0 0.0 0.00 0.00 0.00 55 1013.6
20260505162023 22 0.0 0.0 0.00 0.00 0.00 56 1013.6
20260505161025 21 0.0 0.0 0.00 0.00 0.00 58 1013.5
20260505160212 21 0.0 0.0 0.00 0.00 0.00 59 1013.4
20260505153040 20 0.0 0.0 0.00 0.00 0.00 62 1013.4
20260505152023 19 0.0 0.0 0.00 0.00 0.00 64 1013.2
20260505151021 19 0.0 0.0 0.00 0.00 0.00 65 1013.1
20260505125018 16 0.0 0.0 0.00 0.00 0.00 73 1011.4
20260505124020 16 0.0 0.0 0.00 0.00 0.00 73 1011.4
20260505123024 16 0.0 0.0 0.00 0.00 0.00 70 1011.1
20260505122027 17 0.0 0.0 0.00 0.00 0.00 70 1011.0
20260505121030 17 0.0 0.0 0.00 0.00 0.00 70 1010.9
20260505120048 17 0.0 0.0 0.00 0.00 0.00 70 1010.8
20260505115018 17 0.0 0.0 0.00 0.00 0.00 69 1010.8
20260505114021 17 0.0 0.0 0.00 0.00 0.00 68 1010.8
20260505113018 18 0.0 0.0 0.00 0.00 0.00 68 1010.5
20260505112017 18 0.0 0.0 0.00 0.00 0.00 68 1010.4
20260505111025 18 0.0 0.0 0.00 0.00 0.00 67 1010.4
20260505102023 18 0.0 0.0 0.00 0.00 0.00 67 1010.0
20260505101026 18 0.0 0.0 0.00 0.00 0.00 67 1010.0
20260505100029 18 0.0 0.0 0.00 0.00 0.00 67 1009.9
20260505095035 18 0.0 0.0 0.00 0.00 0.00 67 1009.8
20260505094018 18 0.0 0.0 0.00 0.00 0.00 68 1009.6
20260505093021 18 0.0 0.0 0.00 0.00 0.00 68 1009.6
20260505092024 18 0.0 0.0 0.00 0.00 0.00 68 1009.8
20260505091027 17 0.0 0.0 0.00 0.00 0.00 69 1009.8
20260505090030 17 0.0 0.0 0.00 0.00 0.00 69 1009.8
20260505085037 17 0.0 0.0 0.00 0.00 0.00 68 1009.8
20260505084019 17 0.0 0.0 0.00 0.00 0.00 69 1009.6
20260505083042 17 0.0 0.0 0.00 0.00 0.00 69 1009.4
20260505082027 17 0.0 0.0 0.00 0.00 0.00 69 1009.3
20260505081021 17 0.0 0.0 0.00 0.00 0.00 70 1009.3
20260505080019 16 0.0 0.0 0.00 0.00 0.00 69 1009.3
20260505075056 16 0.0 0.0 0.00 0.00 0.00 67 1009.1
20260505074019 17 0.0 0.0 0.00 0.00 0.00 66 1008.9
20260505073023 17 0.0 0.0 0.00 0.00 0.00 65 1008.9
20260505072026 17 0.0 0.0 0.00 0.00 0.00 65 1008.8
20260505071029 18 0.0 0.0 0.00 0.00 0.00 66 1008.8
20260505070047 18 0.0 0.0 0.00 0.00 0.00 63 1008.8
20260505065052 18 0.0 0.0 0.00 0.00 0.00 63 1008.6
20260505064033 18 0.0 0.0 0.00 0.00 0.00 62 1008.3
20260505063017 18 0.0 0.0 0.00 0.00 0.00 63 1008.3
20260505062020 19 0.0 0.0 0.00 0.00 0.00 62 1008.3
20260505061024 19 0.0 0.0 0.00 0.00 0.00 61 1008.2
20260505060027 19 0.0 0.0 0.00 0.00 0.00 60 1008.1
20260505055025 20 0.0 0.0 0.00 0.00 0.00 60 1008.0
20260505054015 20 0.0 0.0 0.00 0.00 0.00 58 1007.8
20260505053020 20 0.0 0.0 0.00 0.00 0.00 57 1007.8
20260505052037 20 0.0 0.0 0.00 0.00 0.00 57 1007.6
20260505051031 20 0.0 0.0 0.00 0.00 0.00 58 1007.7
20260505041026 22 0.0 0.0 0.00 0.00 0.00 49 1007.3
20260505040029 22 0.0 0.0 0.00 0.00 0.00 48 1007.3
20260505035032 22 0.0 0.0 0.00 0.00 0.00 48 1007.1
20260505034017 23 0.0 0.0 0.00 0.00 0.00 48 1007.0
20260505033023 23 0.0 0.0 0.00 0.00 0.00 48 1006.9
20260505032025 24 0.0 0.0 0.00 0.00 0.00 42 1006.8
20260505031027 25 0.0 0.0 0.00 0.00 0.00 37 1006.8
20260505030031 26 0.0 0.0 0.00 0.00 0.00 38 1006.8
20260505025016 26 0.0 0.0 0.00 0.00 0.00 37 1006.8
20260505024020 27 0.0 0.0 0.00 0.00 0.00 36 1006.8
20260505023022 27 0.0 0.0 0.00 0.00 0.00 34 1006.8
20260505022025 28 0.0 0.0 0.00 0.00 0.00 33 1006.8
20260505021023 28 0.0 0.0 0.00 0.00 0.00 30 1006.8
20260505020020 29 0.0 0.0 0.00 0.00 0.00 28 1006.8
20260505015118 30 0.0 0.0 0.00 0.00 0.00 24 1006.9
20260505014020 30 0.0 0.0 0.00 0.00 0.00 22 1006.8
20260505013023 31 0.0 0.0 0.00 0.00 0.00 22 1006.9
20260505012027 32 0.0 0.0 0.00 0.00 0.00 21 1007.1
20260505011030 32 0.0 0.0 0.00 0.00 0.00 20 1007.1
20260505010016 34 0.0 0.0 0.00 0.00 0.00 19 1007.1
20260505005058 35 0.0 0.0 0.00 0.00 0.00 19 1007.1
20260505004023 36 0.0 0.0 0.00 0.00 0.00 18 1007.1
20260505003026 36 0.0 0.0 0.00 0.00 0.00 17 1007.3
20260505002029 37 0.0 0.0 0.00 0.00 0.00 17 1007.3
20260505001032 40 0.0 0.0 0.00 0.00 0.00 17 1007.3
20260505000058 38 0.0 0.0 0.00 0.00 0.00 17 1007.3
20260504235020 40 0.0 0.0 0.00 0.00 0.00 18 1007.4
20260504234023 40 0.0 0.0 0.00 0.00 0.00 16 1007.5
20260504233026 40 0.0 0.0 0.00 0.00 0.00 16 1007.6
20260504232029 39 0.0 0.0 0.00 0.00 0.00 17 1007.8
20260504231033 40 0.0 0.0 0.00 0.00 0.00 17 1007.8
20260504230017 40 0.0 0.0 0.00 0.00 0.00 16 1007.8
20260504225022 40 0.0 0.0 0.00 0.00 0.00 19 1007.9
20260504224024 40 0.0 0.0 0.00 0.00 0.00 18 1008.1
20260504223021 39 0.0 0.0 0.00 0.00 0.00 17 1008.3
20260504222019 40 0.0 0.0 0.00 0.00 0.00 17 1008.4
20260504221015 40 0.0 0.0 0.00 0.00 0.00 17 1008.5
20260504220019 39 0.0 0.0 0.00 0.00 0.00 19 1008.6
20260504215022 40 0.0 0.0 0.00 0.00 0.00 18 1008.8
20260504214025 39 0.0 0.0 0.00 0.00 0.00 19 1008.9
20260504213028 40 0.0 0.0 0.00 0.00 0.00 18 1009.1
20260504212032 40 0.0 0.0 0.00 0.00 0.00 19 1009.1
20260504211017 38 0.0 0.0 0.00 0.00 0.00 20 1009.2
20260504210020 39 0.0 0.0 0.00 0.00 0.00 21 1009.3
20260504205044 40 0.0 0.0 0.00 0.00 0.00 20 1009.5
20260504204028 39 0.0 0.0 0.00 0.00 0.00 20 1009.6
20260504203029 38 0.0 0.0 0.00 0.00 0.00 21 1009.8
20260504202033 38 0.0 0.0 0.00 0.00 0.00 21 1009.8
20260504201038 38 0.0 0.0 0.00 0.00 0.00 20 1009.9
20260504200022 39 0.0 0.0 0.00 0.00 0.00 21 1010.0
20260504195025 37 0.0 0.0 0.00 0.00 0.00 22 1010.1
20260504194027 36 0.0 0.0 0.00 0.00 0.00 23 1010.1
20260504193031 36 0.0 0.0 0.00 0.00 0.00 23 1010.3
20260504192016 36 0.0 0.0 0.00 0.00 0.00 24 1010.3
20260504191019 35 0.0 0.0 0.00 0.00 0.00 24 1010.4
20260504190023 33 0.0 0.0 0.00 0.00 0.00 27 1010.5
20260504185040 32 0.0 0.0 0.00 0.00 0.00 27 1010.5
20260504184016 33 0.0 0.0 0.00 0.00 0.00 26 1010.6
20260504183031 33 0.0 0.0 0.00 0.00 0.00 29 1010.8
20260504182037 31 0.0 0.0 0.00 0.00 0.00 29 1010.8
20260504181020 31 0.0 0.0 0.00 0.00 0.00 31 1010.9
20260504180045 31 0.0 0.0 0.00 0.00 0.00 30 1010.9
20260504175127 28 0.0 0.0 0.00 0.00 0.00 35 1010.9
20260504174030 27 0.0 0.0 0.00 0.00 0.00 36 1010.9
20260504173015 27 0.0 0.0 0.00 0.00 0.00 38 1010.9
20260504172018 27 0.0 0.0 0.00 0.00 0.00 39 1010.9
20260504171022 25 0.0 0.0 0.00 0.00 0.00 43 1010.9